AZU2647 SBCF-SBJP

Flight info

Callsign AZU2647
Flight time 2h 7m
Altitude 37000
Route ILPIR UZ23 ANBEX
Aircraft A20N/M-SDE2E3FGHIRWXY/LB1

Departure

Time 2026-05-07 15:06
Airport Tancredo Neves International Airport (SBCF)

Arrival

Time 2026-05-07 17:14
Airport Presidente Castro Pinto International Airport (SBJP)
Time Latitude Longitude Altitude Speed Heading
2026-05-07 14:27 -19.62852 -43.96844 2760 ft 0 kts 47°
2026-05-07 14:54 -19.62858 -43.96850 2759 ft 2 kts 47°
2026-05-07 14:55 -19.62867 -43.96860 2759 ft 0 kts 47°
2026-05-07 14:55 -19.62875 -43.96869 2758 ft 2 kts 21°
2026-05-07 14:55 -19.62890 -43.96870 2758 ft 2 kts 342°
2026-05-07 14:55 -19.62898 -43.96866 2758 ft 1 kts 320°
2026-05-07 14:56 -19.62903 -43.96860 2758 ft 0 kts 319°
2026-05-07 14:58 -19.62899 -43.96864 2759 ft 1 kts 319°
2026-05-07 14:58 -19.62886 -43.96876 2759 ft 3 kts 320°
2026-05-07 14:58 -19.62862 -43.96898 2759 ft 5 kts 319°
2026-05-07 14:59 -19.62832 -43.96930 2758 ft 7 kts 302°
2026-05-07 14:59 -19.62814 -43.96992 2757 ft 10 kts 285°
2026-05-07 14:59 -19.62810 -43.97071 2757 ft 10 kts 248°
2026-05-07 14:59 -19.62847 -43.97133 2757 ft 9 kts 269°
2026-05-07 15:00 -19.62804 -43.97187 2757 ft 9 kts 319°
2026-05-07 15:00 -19.62752 -43.97234 2757 ft 9 kts 319°
2026-05-07 15:00 -19.62702 -43.97282 2757 ft 9 kts 319°
2026-05-07 15:00 -19.62650 -43.97330 2757 ft 10 kts 319°
2026-05-07 15:01 -19.62595 -43.97380 2757 ft 10 kts 319°
2026-05-07 15:01 -19.62535 -43.97436 2757 ft 11 kts 319°
2026-05-07 15:01 -19.62473 -43.97494 2757 ft 12 kts 319°
2026-05-07 15:01 -19.62407 -43.97555 2757 ft 12 kts 319°
2026-05-07 15:02 -19.62343 -43.97614 2757 ft 11 kts 319°
2026-05-07 15:02 -19.62295 -43.97659 2757 ft 7 kts 319°
2026-05-07 15:02 -19.62279 -43.97694 2757 ft 4 kts 242°
2026-05-07 15:02 -19.62300 -43.97720 2757 ft 3 kts 230°
2026-05-07 15:03 -19.62302 -43.97723 2757 ft 0 kts 230°
2026-05-07 15:04 -19.62304 -43.97726 2757 ft 1 kts 230°
2026-05-07 15:04 -19.62314 -43.97739 2757 ft 3 kts 230°
2026-05-07 15:04 -19.62341 -43.97771 2757 ft 7 kts 230°
2026-05-07 15:05 -19.62385 -43.97798 2757 ft 7 kts 166°
2026-05-07 15:05 -19.62428 -43.97762 2757 ft 9 kts 139°
2026-05-07 15:05 -19.62569 -43.97632 2757 ft 58 kts 138°
2026-05-07 15:05 -19.63052 -43.97185 2758 ft 123 kts 139°
2026-05-07 15:06 -19.63834 -43.96468 2858 ft 164 kts 137°
2026-05-07 15:06 -19.64702 -43.95685 3417 ft 164 kts 137°
2026-05-07 15:06 -19.65558 -43.94898 4047 ft 165 kts 136°
2026-05-07 15:06 -19.66414 -43.94091 4624 ft 167 kts 133°
2026-05-07 15:07 -19.67004 -43.93028 4922 ft 175 kts 92°
2026-05-07 15:07 -19.66723 -43.91742 5220 ft 190 kts 68°
2026-05-07 15:07 -19.66272 -43.90368 5638 ft 203 kts 72°
2026-05-07 15:07 -19.65877 -43.88887 5996 ft 220 kts 73°
2026-05-07 15:08 -19.65462 -43.87226 6278 ft 243 kts 74°
2026-05-07 15:08 -19.65030 -43.85442 6700 ft 261 kts 74°
2026-05-07 15:08 -19.64570 -43.83519 7310 ft 271 kts 74°
2026-05-07 15:08 -19.64114 -43.81598 8094 ft 273 kts 74°
2026-05-07 15:09 -19.63648 -43.79639 8875 ft 276 kts 73°
2026-05-07 15:09 -19.63178 -43.77670 9615 ft 279 kts 73°
2026-05-07 15:09 -19.62700 -43.75671 10335 ft 282 kts 74°
2026-05-07 15:09 -19.62162 -43.73646 10854 ft 293 kts 68°
2026-05-07 15:10 -19.61261 -43.71671 11194 ft 308 kts 57°
2026-05-07 15:10 -19.59970 -43.69819 11740 ft 315 kts 51°
2026-05-07 15:10 -19.58568 -43.68017 12401 ft 319 kts 50°
2026-05-07 15:10 -19.57159 -43.66222 13035 ft 322 kts 50°
2026-05-07 15:11 -19.55720 -43.64383 13650 ft 326 kts 50°
2026-05-07 15:11 -19.54275 -43.62531 14272 ft 330 kts 50°
2026-05-07 15:11 -19.52792 -43.60637 14882 ft 333 kts 49°
2026-05-07 15:11 -19.51165 -43.58887 15468 ft 337 kts 43°
2026-05-07 15:12 -19.49317 -43.57336 16032 ft 342 kts 36°
2026-05-07 15:12 -19.47340 -43.55935 16570 ft 347 kts 34°
2026-05-07 15:12 -19.45292 -43.54527 17106 ft 351 kts 34°
2026-05-07 15:12 -19.43239 -43.53121 17632 ft 355 kts 34°
2026-05-07 15:13 -19.41148 -43.51681 18151 ft 359 kts 34°
2026-05-07 15:13 -19.39051 -43.50236 18626 ft 364 kts 35°
2026-05-07 15:13 -19.36902 -43.48752 19125 ft 369 kts 35°
2026-05-07 15:13 -19.34736 -43.47257 19623 ft 373 kts 35°
2026-05-07 15:14 -19.32545 -43.45744 20114 ft 377 kts 35°
2026-05-07 15:14 -19.30374 -43.44175 20604 ft 380 kts 38°
2026-05-07 15:14 -19.28263 -43.42514 21091 ft 384 kts 39°
2026-05-07 15:14 -19.26123 -43.40812 21579 ft 387 kts 39°
2026-05-07 15:15 -19.23935 -43.39070 22068 ft 391 kts 39°
2026-05-07 15:15 -19.21772 -43.37349 22547 ft 394 kts 39°
2026-05-07 15:15 -19.19575 -43.35605 23015 ft 398 kts 39°
2026-05-07 15:15 -19.17327 -43.33820 23469 ft 402 kts 39°
2026-05-07 15:16 -19.15039 -43.32002 23921 ft 406 kts 39°
2026-05-07 15:16 -19.12749 -43.30185 24356 ft 411 kts 39°
2026-05-07 15:16 -19.10476 -43.28383 24758 ft 415 kts 39°
2026-05-07 15:16 -19.08144 -43.26533 25164 ft 419 kts 40°
2026-05-07 15:17 -19.05795 -43.24671 25571 ft 423 kts 40°
2026-05-07 15:17 -19.03441 -43.22805 25955 ft 428 kts 40°
2026-05-07 15:17 -19.01038 -43.20901 26361 ft 431 kts 40°
2026-05-07 15:17 -18.98609 -43.18979 26748 ft 435 kts 40°
2026-05-07 15:18 -18.96178 -43.17055 27114 ft 439 kts 40°
2026-05-07 15:18 -18.93755 -43.15138 27483 ft 442 kts 40°
2026-05-07 15:18 -18.91266 -43.13168 27847 ft 446 kts 40°
2026-05-07 15:18 -18.88773 -43.11195 28185 ft 449 kts 40°
2026-05-07 15:19 -18.86258 -43.09208 28515 ft 452 kts 41°
2026-05-07 15:19 -18.83710 -43.07194 28846 ft 455 kts 41°
2026-05-07 15:19 -18.81152 -43.05174 29158 ft 459 kts 41°
2026-05-07 15:19 -18.78607 -43.03164 29495 ft 461 kts 41°
2026-05-07 15:20 -18.76010 -43.01114 29836 ft 464 kts 41°
2026-05-07 15:20 -18.73438 -42.99082 30166 ft 466 kts 41°
2026-05-07 15:20 -18.70808 -42.97006 30525 ft 467 kts 41°
2026-05-07 15:20 -18.68217 -42.94960 30835 ft 469 kts 41°
2026-05-07 15:21 -18.65605 -42.92898 31168 ft 471 kts 41°
2026-05-07 15:21 -18.62956 -42.90809 31599 ft 470 kts 41°
2026-05-07 15:21 -18.60339 -42.88744 32014 ft 469 kts 40°
2026-05-07 15:21 -18.57760 -42.86711 32385 ft 468 kts 40°
2026-05-07 15:22 -18.55125 -42.84635 32762 ft 467 kts 40°
2026-05-07 15:22 -18.52528 -42.82592 33115 ft 467 kts 40°
2026-05-07 15:22 -18.49937 -42.80558 33480 ft 466 kts 40°
2026-05-07 15:22 -18.47345 -42.78522 33835 ft 465 kts 40°
2026-05-07 15:23 -18.44730 -42.76472 34163 ft 465 kts 40°
2026-05-07 15:23 -18.42152 -42.74449 34467 ft 465 kts 40°
2026-05-07 15:23 -18.39549 -42.72406 34788 ft 464 kts 40°
2026-05-07 15:23 -18.36967 -42.70380 35092 ft 464 kts 40°
2026-05-07 15:24 -18.34385 -42.68355 35382 ft 463 kts 40°
2026-05-07 15:24 -18.31790 -42.66320 35652 ft 463 kts 40°
2026-05-07 15:24 -18.29211 -42.64297 35845 ft 465 kts 40°
2026-05-07 15:24 -18.26605 -42.62255 36010 ft 466 kts 40°
2026-05-07 15:25 -18.24010 -42.60225 36190 ft 468 kts 40°
2026-05-07 15:25 -18.21404 -42.58184 36389 ft 469 kts 40°
2026-05-07 15:25 -18.18765 -42.56118 36557 ft 470 kts 40°
2026-05-07 15:25 -18.16148 -42.54069 36716 ft 471 kts 40°
2026-05-07 15:26 -18.13520 -42.52015 36886 ft 472 kts 40°
2026-05-07 15:26 -18.10858 -42.49935 37059 ft 472 kts 40°
2026-05-07 15:26 -18.05563 -42.45800 37157 ft 474 kts 40°
2026-05-07 15:27 -18.00251 -42.41653 37155 ft 474 kts 40°
2026-05-07 15:27 -17.94965 -42.37530 37160 ft 474 kts 40°
2026-05-07 15:28 -17.89609 -42.33355 37162 ft 474 kts 40°
2026-05-07 15:28 -17.84234 -42.29170 37167 ft 473 kts 40°
2026-05-07 15:29 -17.78897 -42.25016 37176 ft 473 kts 40°
2026-05-07 15:29 -17.73598 -42.20895 37176 ft 473 kts 40°
2026-05-07 15:30 -17.68316 -42.16790 37177 ft 473 kts 40°
2026-05-07 15:30 -17.62980 -42.12645 37175 ft 474 kts 40°
2026-05-07 15:31 -17.57698 -42.08545 37175 ft 474 kts 40°
2026-05-07 15:31 -17.52364 -42.04406 37170 ft 473 kts 40°
2026-05-07 15:32 -17.47081 -42.00314 37174 ft 473 kts 40°
2026-05-07 15:32 -17.41793 -41.96223 37165 ft 472 kts 40°
2026-05-07 15:33 -17.36499 -41.92121 37160 ft 472 kts 40°
2026-05-07 15:33 -17.31210 -41.88029 37157 ft 471 kts 40°
2026-05-07 15:34 -17.25961 -41.83968 37158 ft 472 kts 40°
2026-05-07 15:34 -17.20682 -41.79887 37159 ft 472 kts 40°
2026-05-07 15:35 -17.15378 -41.75791 37158 ft 471 kts 40°
2026-05-07 15:35 -17.10126 -41.71740 37158 ft 471 kts 40°
2026-05-07 15:36 -17.04833 -41.67655 37151 ft 470 kts 40°
2026-05-07 15:36 -16.99565 -41.63593 37144 ft 470 kts 40°
2026-05-07 15:37 -16.94307 -41.59543 37132 ft 470 kts 40°
2026-05-07 15:37 -16.89009 -41.55464 37123 ft 470 kts 40°
2026-05-07 15:38 -16.83662 -41.51352 37118 ft 469 kts 40°
2026-05-07 15:38 -16.78402 -41.47307 37114 ft 471 kts 40°
2026-05-07 15:39 -16.73119 -41.43247 37106 ft 470 kts 40°
2026-05-07 15:39 -16.67850 -41.39197 37111 ft 470 kts 40°
2026-05-07 15:40 -16.62604 -41.35130 37099 ft 470 kts 40°
2026-05-07 15:40 -16.57322 -41.31030 37095 ft 470 kts 40°
2026-05-07 15:41 -16.52028 -41.26925 37083 ft 478 kts 40°
2026-05-07 15:41 -16.46652 -41.22759 37075 ft 485 kts 39°
2026-05-07 15:42 -16.41206 -41.18544 37084 ft 491 kts 39°
2026-05-07 15:42 -16.35702 -41.14290 37093 ft 495 kts 39°
2026-05-07 15:43 -16.30142 -41.09993 37095 ft 496 kts 39°
2026-05-07 15:43 -16.24608 -41.05721 37089 ft 496 kts 39°
2026-05-07 15:44 -16.19033 -41.01419 37083 ft 497 kts 39°
2026-05-07 15:44 -16.13484 -40.97140 37087 ft 497 kts 39°
2026-05-07 15:45 -16.07925 -40.92857 37092 ft 497 kts 39°
2026-05-07 15:45 -16.02376 -40.88582 37099 ft 498 kts 39°
2026-05-07 15:46 -15.94009 -40.82144 37118 ft 497 kts 39°
2026-05-07 15:47 -15.88464 -40.77882 37120 ft 497 kts 39°
2026-05-07 15:47 -15.82949 -40.73647 37130 ft 497 kts 39°
2026-05-07 15:48 -15.77378 -40.69369 37131 ft 496 kts 38°
2026-05-07 15:48 -15.71841 -40.65120 37133 ft 496 kts 38°
2026-05-07 15:49 -15.66260 -40.60843 37128 ft 496 kts 38°
2026-05-07 15:49 -15.60708 -40.56590 37126 ft 495 kts 38°
2026-05-07 15:50 -15.55174 -40.52354 37117 ft 495 kts 38°
2026-05-07 15:50 -15.49624 -40.48106 37106 ft 495 kts 38°
2026-05-07 15:51 -15.44102 -40.43885 37100 ft 495 kts 38°
2026-05-07 15:51 -15.38566 -40.39653 37090 ft 495 kts 38°
2026-05-07 15:52 -15.32998 -40.35400 37082 ft 494 kts 38°
2026-05-07 15:52 -15.27480 -40.31191 37074 ft 494 kts 38°
2026-05-07 15:53 -15.21930 -40.26965 37070 ft 494 kts 37°
2026-05-07 15:53 -15.16380 -40.22739 37077 ft 493 kts 37°
2026-05-07 15:54 -15.10876 -40.18552 37083 ft 493 kts 37°
2026-05-07 15:54 -15.05339 -40.14341 37084 ft 493 kts 37°
2026-05-07 15:55 -14.99813 -40.10140 37083 ft 494 kts 37°
2026-05-07 15:55 -14.94264 -40.05925 37081 ft 493 kts 37°
2026-05-07 15:56 -14.88715 -40.01711 37072 ft 493 kts 37°
2026-05-07 15:56 -14.83174 -39.97506 37058 ft 492 kts 37°
2026-05-07 15:57 -14.77652 -39.93321 37055 ft 492 kts 37°
2026-05-07 15:57 -14.72122 -39.89129 37062 ft 492 kts 37°
2026-05-07 15:58 -14.66587 -39.84938 37056 ft 492 kts 37°
2026-05-07 15:58 -14.61055 -39.80752 37052 ft 492 kts 37°
2026-05-07 15:59 -14.55535 -39.76576 37051 ft 493 kts 36°
2026-05-07 15:59 -14.50002 -39.72394 37041 ft 494 kts 36°
2026-05-07 16:00 -14.44439 -39.68190 37035 ft 493 kts 36°
2026-05-07 16:00 -14.38911 -39.64015 37028 ft 493 kts 36°
2026-05-07 16:01 -14.33375 -39.59836 37022 ft 493 kts 36°
2026-05-07 16:01 -14.27820 -39.55660 37017 ft 493 kts 36°
2026-05-07 16:02 -14.22277 -39.51512 37014 ft 492 kts 36°
2026-05-07 16:02 -14.16702 -39.47339 37017 ft 492 kts 36°
2026-05-07 16:03 -14.11167 -39.43195 37020 ft 493 kts 36°
2026-05-07 16:03 -14.05632 -39.39053 37027 ft 493 kts 36°
2026-05-07 16:04 -14.00080 -39.34901 37033 ft 493 kts 35°
2026-05-07 16:04 -13.94521 -39.30747 37023 ft 493 kts 35°
2026-05-07 16:05 -13.88921 -39.26566 37022 ft 493 kts 35°
2026-05-07 16:05 -13.83386 -39.22432 37021 ft 494 kts 35°
2026-05-07 16:06 -13.77799 -39.18265 37017 ft 493 kts 35°
2026-05-07 16:06 -13.72262 -39.14133 37013 ft 492 kts 35°
2026-05-07 16:07 -13.66710 -39.09997 37003 ft 492 kts 35°
2026-05-07 16:07 -13.61166 -39.05865 36995 ft 492 kts 34°
2026-05-07 16:08 -13.55607 -39.01737 36997 ft 492 kts 34°
2026-05-07 16:08 -13.50054 -38.97634 36996 ft 492 kts 34°
2026-05-07 16:09 -13.44501 -38.93528 36993 ft 493 kts 34°
2026-05-07 16:09 -13.38918 -38.89400 36995 ft 493 kts 34°
2026-05-07 16:10 -13.33341 -38.85279 36992 ft 493 kts 34°
2026-05-07 16:10 -13.27754 -38.81152 36993 ft 493 kts 34°
2026-05-07 16:11 -13.22206 -38.77055 36995 ft 493 kts 33°
2026-05-07 16:11 -13.16645 -38.72954 36989 ft 493 kts 33°
2026-05-07 16:12 -13.11064 -38.68839 36993 ft 494 kts 33°
2026-05-07 16:12 -13.05498 -38.64734 36991 ft 494 kts 33°
2026-05-07 16:13 -12.99898 -38.60609 36993 ft 494 kts 33°
2026-05-07 16:13 -12.94302 -38.56493 36995 ft 494 kts 33°
2026-05-07 16:14 -12.88709 -38.52376 36996 ft 494 kts 33°
2026-05-07 16:14 -12.83091 -38.48244 36992 ft 493 kts 33°
2026-05-07 16:15 -12.77513 -38.44144 36986 ft 494 kts 33°
2026-05-07 16:15 -12.71936 -38.40049 36983 ft 494 kts 33°
2026-05-07 16:16 -12.66359 -38.35955 36990 ft 494 kts 33°
2026-05-07 16:16 -12.60764 -38.31849 36987 ft 494 kts 32°
2026-05-07 16:17 -12.55152 -38.27734 36990 ft 493 kts 32°
2026-05-07 16:17 -12.49563 -38.23637 36987 ft 494 kts 32°
2026-05-07 16:18 -12.43971 -38.19539 36988 ft 494 kts 32°
2026-05-07 16:18 -12.38391 -38.15453 36990 ft 493 kts 32°
2026-05-07 16:19 -12.32806 -38.11363 36989 ft 493 kts 32°
2026-05-07 16:19 -12.27219 -38.07279 36988 ft 493 kts 32°
2026-05-07 16:20 -12.21653 -38.03217 36989 ft 493 kts 32°
2026-05-07 16:20 -12.16056 -37.99136 36990 ft 491 kts 32°
2026-05-07 16:21 -12.10514 -37.95094 36990 ft 491 kts 32°
2026-05-07 16:21 -12.04952 -37.91038 36988 ft 491 kts 32°
2026-05-07 16:22 -11.99357 -37.86962 36983 ft 492 kts 32°
2026-05-07 16:22 -11.93779 -37.82893 36970 ft 492 kts 32°
2026-05-07 16:23 -11.88211 -37.78840 36966 ft 491 kts 31°
2026-05-07 16:23 -11.82610 -37.74779 36967 ft 491 kts 31°
2026-05-07 16:24 -11.77019 -37.70734 36967 ft 490 kts 31°
2026-05-07 16:24 -11.71479 -37.66723 36963 ft 490 kts 31°
2026-05-07 16:25 -11.65890 -37.62679 36967 ft 490 kts 31°
2026-05-07 16:25 -11.60333 -37.58657 36966 ft 491 kts 31°
2026-05-07 16:26 -11.54784 -37.54643 36961 ft 489 kts 31°
2026-05-07 16:26 -11.49238 -37.50634 36958 ft 489 kts 31°
2026-05-07 16:27 -11.43668 -37.46608 36954 ft 488 kts 30°
2026-05-07 16:27 -11.38140 -37.42618 36952 ft 488 kts 30°
2026-05-07 16:28 -11.32593 -37.38615 36948 ft 488 kts 31°
2026-05-07 16:28 -11.27053 -37.34616 36942 ft 488 kts 30°
2026-05-07 16:29 -11.21531 -37.30635 36940 ft 488 kts 30°
2026-05-07 16:29 -11.15977 -37.26629 36940 ft 486 kts 30°
2026-05-07 16:30 -11.10452 -37.22647 36942 ft 486 kts 30°
2026-05-07 16:30 -11.04951 -37.18685 36942 ft 485 kts 30°
2026-05-07 16:31 -10.99446 -37.14722 36945 ft 484 kts 30°
2026-05-07 16:31 -10.93946 -37.10784 36944 ft 484 kts 30°
2026-05-07 16:32 -10.88406 -37.06818 36943 ft 484 kts 30°
2026-05-07 16:32 -10.82846 -37.02839 36939 ft 485 kts 30°
2026-05-07 16:33 -10.77312 -36.98877 36934 ft 484 kts 30°
2026-05-07 16:33 -10.71818 -36.94946 36934 ft 483 kts 30°
2026-05-07 16:34 -10.66321 -36.91014 36931 ft 483 kts 30°
2026-05-07 16:34 -10.60819 -36.87081 36927 ft 483 kts 30°
2026-05-07 16:35 -10.55320 -36.83152 36929 ft 483 kts 30°
2026-05-07 16:35 -10.49789 -36.79200 36932 ft 483 kts 30°
2026-05-07 16:36 -10.44308 -36.75286 36930 ft 482 kts 30°
2026-05-07 16:36 -10.38840 -36.71382 36929 ft 481 kts 30°
2026-05-07 16:37 -10.33357 -36.67471 36925 ft 481 kts 30°
2026-05-07 16:37 -10.27885 -36.63567 36923 ft 480 kts 30°
2026-05-07 16:38 -10.22424 -36.59673 36920 ft 479 kts 30°
2026-05-07 16:38 -10.16947 -36.55770 36927 ft 479 kts 30°
2026-05-07 16:39 -10.11502 -36.51902 36928 ft 479 kts 30°
2026-05-07 16:39 -10.06025 -36.48025 36933 ft 478 kts 30°
2026-05-07 16:40 -10.00583 -36.44173 36939 ft 477 kts 30°
2026-05-07 16:40 -9.95140 -36.40318 36940 ft 476 kts 30°
2026-05-07 16:41 -9.89716 -36.36480 36941 ft 476 kts 30°
2026-05-07 16:41 -9.84238 -36.32602 36935 ft 475 kts 30°
2026-05-07 16:42 -9.78792 -36.28748 36935 ft 474 kts 30°
2026-05-07 16:42 -9.73402 -36.24937 36939 ft 473 kts 29°
2026-05-07 16:43 -9.67990 -36.21112 36940 ft 472 kts 29°
2026-05-07 16:43 -9.62613 -36.17314 36943 ft 471 kts 30°
2026-05-07 16:44 -9.57252 -36.13528 36945 ft 470 kts 30°
2026-05-07 16:44 -9.51890 -36.09742 36944 ft 469 kts 30°
2026-05-07 16:45 -9.46552 -36.05975 36945 ft 468 kts 30°
2026-05-07 16:45 -9.41174 -36.02181 36944 ft 468 kts 30°
2026-05-07 16:46 -9.35852 -35.98427 36944 ft 468 kts 30°
2026-05-07 16:46 -9.30489 -35.94647 36943 ft 467 kts 29°
2026-05-07 16:47 -9.25143 -35.90879 36943 ft 467 kts 30°
2026-05-07 16:47 -9.19845 -35.87145 36945 ft 466 kts 30°
2026-05-07 16:48 -9.14499 -35.83378 36947 ft 466 kts 30°
2026-05-07 16:48 -9.09181 -35.79636 36949 ft 465 kts 29°
2026-05-07 16:49 -9.03677 -35.76222 36946 ft 460 kts 23°
2026-05-07 16:49 -8.97910 -35.73476 36946 ft 456 kts 17°
2026-05-07 16:50 -8.91939 -35.71387 36953 ft 451 kts 12°
2026-05-07 16:50 -8.85922 -35.69521 36963 ft 450 kts 12°
2026-05-07 16:51 -8.79921 -35.67659 36966 ft 450 kts 12°
2026-05-07 16:51 -8.73896 -35.65788 36962 ft 450 kts 12°
2026-05-07 16:52 -8.67944 -35.63937 36527 ft 441 kts 12°
2026-05-07 16:52 -8.65050 -35.63036 35329 ft 441 kts 12°
2026-05-07 16:52 -8.62111 -35.62124 33840 ft 442 kts 12°
2026-05-07 16:52 -8.59139 -35.61203 32422 ft 449 kts 12°
2026-05-07 16:53 -8.56160 -35.60281 31371 ft 453 kts 12°
2026-05-07 16:53 -8.53155 -35.59350 30372 ft 457 kts 13°
2026-05-07 16:53 -8.50076 -35.58396 29295 ft 463 kts 13°
2026-05-07 16:53 -8.46991 -35.57438 28301 ft 467 kts 13°
2026-05-07 16:54 -8.43890 -35.56475 27717 ft 462 kts 13°
2026-05-07 16:54 -8.40799 -35.55513 27209 ft 456 kts 13°
2026-05-07 16:54 -8.37780 -35.54573 26696 ft 450 kts 13°
2026-05-07 16:54 -8.34815 -35.53653 26179 ft 444 kts 13°
2026-05-07 16:55 -8.31851 -35.52733 25655 ft 439 kts 13°
2026-05-07 16:55 -8.28964 -35.51836 25164 ft 433 kts 13°
2026-05-07 16:55 -8.26108 -35.50949 24660 ft 428 kts 13°
2026-05-07 16:55 -8.23244 -35.50061 24153 ft 422 kts 13°
2026-05-07 16:56 -8.20450 -35.49195 23658 ft 417 kts 13°
2026-05-07 16:56 -8.17694 -35.48341 23169 ft 412 kts 13°
2026-05-07 16:56 -8.12272 -35.46661 22183 ft 402 kts 13°
2026-05-07 16:57 -8.09601 -35.45834 21639 ft 399 kts 14°
2026-05-07 16:57 -8.06944 -35.45014 21038 ft 397 kts 14°
2026-05-07 16:57 -8.04304 -35.44199 20409 ft 397 kts 14°
2026-05-07 16:57 -8.01650 -35.43379 19788 ft 396 kts 15°
2026-05-07 16:58 -7.98981 -35.42553 19180 ft 395 kts 15°
2026-05-07 16:58 -7.96364 -35.41742 18583 ft 394 kts 15°
2026-05-07 16:58 -7.93763 -35.40937 18005 ft 392 kts 15°
2026-05-07 16:58 -7.91147 -35.40127 17429 ft 391 kts 16°
2026-05-07 16:59 -7.88509 -35.39310 16826 ft 390 kts 16°
2026-05-07 16:59 -7.85896 -35.38501 16280 ft 388 kts 16°
2026-05-07 16:59 -7.83302 -35.37697 15740 ft 386 kts 17°
2026-05-07 16:59 -7.80765 -35.36910 15401 ft 383 kts 16°
2026-05-07 17:00 -7.78205 -35.36117 15138 ft 384 kts 17°
2026-05-07 17:00 -7.75630 -35.35319 14849 ft 383 kts 17°
2026-05-07 17:00 -7.73084 -35.34531 14461 ft 381 kts 16°
2026-05-07 17:00 -7.70566 -35.33754 14022 ft 378 kts 17°
2026-05-07 17:01 -7.68049 -35.32978 13533 ft 376 kts 17°
2026-05-07 17:01 -7.65514 -35.32197 13051 ft 374 kts 17°
2026-05-07 17:01 -7.63049 -35.31437 12535 ft 373 kts 18°
2026-05-07 17:01 -7.60576 -35.30673 12016 ft 371 kts 18°
2026-05-07 17:02 -7.58102 -35.29906 11489 ft 370 kts 18°
2026-05-07 17:02 -7.55612 -35.29135 10966 ft 368 kts 18°
2026-05-07 17:02 -7.53169 -35.28380 10636 ft 360 kts 18°
2026-05-07 17:02 -7.50823 -35.27656 10476 ft 347 kts 18°
2026-05-07 17:03 -7.48560 -35.26958 10305 ft 334 kts 19°
2026-05-07 17:03 -7.46350 -35.26276 10149 ft 322 kts 19°
2026-05-07 17:03 -7.44235 -35.25623 9997 ft 311 kts 19°
2026-05-07 17:03 -7.42194 -35.24992 9776 ft 303 kts 19°
2026-05-07 17:04 -7.40183 -35.24370 9397 ft 302 kts 19°
2026-05-07 17:04 -7.38176 -35.23749 9029 ft 300 kts 19°
2026-05-07 17:04 -7.36168 -35.23128 8653 ft 299 kts 19°
2026-05-07 17:04 -7.34169 -35.22510 8286 ft 296 kts 20°
2026-05-07 17:05 -7.32209 -35.21905 7936 ft 295 kts 20°
2026-05-07 17:05 -7.30246 -35.21298 7570 ft 293 kts 20°
2026-05-07 17:05 -7.28310 -35.20701 7213 ft 291 kts 20°
2026-05-07 17:05 -7.26360 -35.20099 6857 ft 289 kts 20°
2026-05-07 17:06 -7.24449 -35.19510 6525 ft 286 kts 20°
2026-05-07 17:06 -7.22540 -35.18921 6198 ft 284 kts 20°
2026-05-07 17:06 -7.20655 -35.18338 5867 ft 282 kts 20°
2026-05-07 17:06 -7.18791 -35.17764 5535 ft 280 kts 20°
2026-05-07 17:07 -7.16917 -35.17185 5198 ft 278 kts 21°
2026-05-07 17:07 -7.15078 -35.16617 4867 ft 277 kts 20°
2026-05-07 17:07 -7.13232 -35.16047 4533 ft 275 kts 20°
2026-05-07 17:07 -7.11400 -35.15482 4203 ft 274 kts 20°
2026-05-07 17:08 -7.09604 -35.14828 3865 ft 269 kts 32°
2026-05-07 17:08 -7.08103 -35.13754 3594 ft 259 kts 47°
2026-05-07 17:08 -7.06872 -35.12528 3565 ft 244 kts 50°
2026-05-07 17:08 -7.05717 -35.11333 3535 ft 229 kts 50°
2026-05-07 17:09 -7.04628 -35.10210 3494 ft 216 kts 51°
2026-05-07 17:09 -7.03618 -35.09159 3434 ft 205 kts 58°
2026-05-07 17:09 -7.03131 -35.07888 3332 ft 185 kts 92°
2026-05-07 17:09 -7.03462 -35.06714 3104 ft 173 kts 121°
2026-05-07 17:10 -7.04170 -35.05757 2878 ft 166 kts 131°
2026-05-07 17:10 -7.04951 -35.04922 2660 ft 159 kts 134°
2026-05-07 17:10 -7.05711 -35.04161 2455 ft 152 kts 135°
2026-05-07 17:10 -7.06464 -35.03417 2261 ft 150 kts 135°
2026-05-07 17:11 -7.07210 -35.02677 2067 ft 151 kts 135°
2026-05-07 17:11 -7.07953 -35.01939 1860 ft 151 kts 135°
2026-05-07 17:11 -7.08703 -35.01194 1661 ft 150 kts 135°
2026-05-07 17:11 -7.09421 -35.00478 1481 ft 139 kts 135°
2026-05-07 17:12 -7.10089 -34.99813 1272 ft 132 kts 134°
2026-05-07 17:12 -7.10733 -34.99173 1119 ft 131 kts 134°
2026-05-07 17:12 -7.11387 -34.98523 942 ft 130 kts 134°
2026-05-07 17:12 -7.12029 -34.97884 768 ft 130 kts 133°
2026-05-07 17:13 -7.12675 -34.97242 588 ft 130 kts 133°
2026-05-07 17:13 -7.13321 -34.96601 434 ft 129 kts 134°
2026-05-07 17:13 -7.13959 -34.95967 275 ft 127 kts 133°
2026-05-07 17:13 -7.14544 -34.95382 219 ft 95 kts 135°
2026-05-07 17:14 -7.14800 -34.95129 219 ft 11 kts 135°
2026-05-07 17:14 -7.14807 -34.95089 219 ft 5 kts 44°
2026-05-07 17:14 -7.14778 -34.95060 219 ft 6 kts 46°
2026-05-07 17:14 -7.14746 -34.95027 219 ft 6 kts 46°
2026-05-07 17:15 -7.14707 -34.94999 219 ft 7 kts
2026-05-07 17:15 -7.14662 -34.95029 219 ft 8 kts 313°
2026-05-07 17:15 -7.14611 -34.95067 219 ft 9 kts
2026-05-07 17:15 -7.14561 -34.95027 219 ft 7 kts 46°
2026-05-07 17:16 -7.14529 -34.94995 219 ft 3 kts 49°
2026-05-07 17:16 -7.14536 -34.94974 219 ft 4 kts 136°
2026-05-07 17:16 -7.14555 -34.94957 219 ft 1 kts 136°
2026-05-07 17:16 -7.14557 -34.94954 219 ft 0 kts 136°